Tracking 19192 objects as of 20-Jun-2018
HD Live streaming from Space Station
objects crossing your sky now

YAOGAN 8

Track YAOGAN 8 now!
10-day predictions
YAOGAN 8 is classified as:


NORAD ID: 36121
Int'l Code: 2009-072A
Perigee: 1,233.3 km
Apogee: 1,266.6 km
Inclination: 100.1 °
Period: 110.4 minutes
Semi major axis: 7620 km
RCS: 3.113 m2 (large)
Launch date: December 15, 2009
Source: People's Republic of China (PRC)
Launch site: Taiyaun Space Center, China (TSC)

YAOGAN 8 is a remote-sensing satellite.
aabbcc
Your satellite tracking list
Your tracking list is empty




NASA's NSSDC Master Catalog

Two Line Element Set (TLE):
1 36121U 09072A   18170.92220276 -.00000042 +00000-0 -33085-5 0  9990
2 36121 100.0824 166.7056 0021858 057.1160 303.2047 13.04934458407893
Source of the keplerian elements: AFSPC